www.pogodaiklimat.ru

Погода и климат >> Архив погоды >> Норвегия >> Аэропорт Орста-Волда


ПОГОДА в Аэропорту Орста-Волда

  • Прогноз погоды в Аэропорту Орста-Волда
  • Монитор погоды в Аэропорту Орста-Волда

АРХИВ ПОГОДЫ в Аэропорту Орста-Волда

Время (UTC), дата Ветер
(напр.,м/с)
 
Видим.   Явления Облачность Т
(С)
Тd
(С)
f
(%)
Тe
(С)
Тes
(С)
Комфортность P
(гПа)
Po
(гПа)
Тmin
(С)
Tmax
(С)
R
(мм)
R24
(мм)
S
(см)
13 20.05 ЮЗ 3
{5}
н/о н/о +22.9 +9.1 41 +24 +24 комфорт 1012.1 1003.6
14 20.05 ЮЗ 3
{4}
н/о н/о +22.0 +8.9 43 +23 +23 комфорт 1012.0 1003.4
15 20.05 ЮЗ 3
{5}
н/о н/о +21.9 +8.5 42 +23 +23 комфорт 1011.8 1003.2
16 20.05 ЮЗ 3
{4}
н/о н/о +18.4 +10.1 58 +19 +19 1011.9 1003.2
17 20.05 ЮЗ 4
{5}
н/о н/о +17.8 +10.2 61 +18 +18 1011.9 1003.1
18 20.05 ЮЗ 2
{5}
н/о н/о +16.2 +9.8 66 +16 +16 1012.1 1003.4 +12.8 +23.5
19 20.05 ЮЗ 2
{3}
н/о н/о +15.6 +9.8 68 +16 +16 1012.5 1003.7
20 20.05 ЮЗ 2
{3}
н/о н/о +14.0 +9.4 74 +14 +14 1012.8 1003.9
21 20.05 ЮЗ 1
{3}
н/о н/о +12.2 +9.5 84 +12 +12 1012.8 1003.9
22 20.05 З 2
{2}
н/о н/о +11.5 +9.4 87 +10 +10 1012.8 1003.9
23 20.05 З 2
{2}
н/о н/о +11.6 +9.4 86 +10 +10 1013.0 1004.1
00 21.05 штиль 0
{3}
н/о н/о +11.9 +9.7 86 +11 +11 1012.9 1004.0
01 21.05 З 1
{2}
н/о н/о +11.7 +9.9 89 +11 +11 1012.6 1003.7
02 21.05 В 1
{3}
н/о н/о +11.9 +10.5 91 +12 +12 1012.4 1003.4
03 21.05 ЮВ 1
{2}
н/о н/о +11.8 +10.7 93 +12 +12 1012.1 1003.2
04 21.05 З 1
{1}
н/о н/о +11.4 +10.5 94 +11 +11 1012.2 1003.3
05 21.05 СВ 1
{2}
н/о н/о +13.6 +11.0 84 +14 +14 1012.0 1003.1
06 21.05 штиль 0
{3}
н/о н/о +14.2 +11.0 81 +14 +14 1011.8 1003.0 +11.4 +16.3
07 21.05 ЮЗ 2
{4}
н/о н/о +16.7 +11.5 71 +17 +17 1011.8 1003.0
08 21.05 ЮЗ 2
{5}
н/о н/о +17.7 +10.9 64 +18 +18 1011.6 1002.9
09 21.05 ЮЗ 2
{4}
н/о н/о +19.6 +11.8 61 +22 +22 комфорт 1011.7 1003.0
10 21.05 В 2
{4}
н/о н/о +19.0 +10.4 57 +20 +20 1011.6 1002.9
11 21.05 ЮЗ 2
{4}
н/о н/о +20.7 +11.3 55 +23 +23 комфорт 1011.4 1002.7
12 21.05 ЮЗ 2
{5}
н/о н/о +20.9 +10.7 52 +23 +23 комфорт 1011.1 1002.5
13 21.05 С 2
{4}
н/о н/о +21.3 +10.8 51 +23 +23 комфорт 1010.9 1002.3
14 21.05 СЗ 3
{5}
н/о н/о +21.8 +11.9 53 +24 +24 комфорт 1010.9 1002.3
15 21.05 СЗ 3
{5}
н/о н/о +21.1 +11.0 52 +23 +23 комфорт 1010.7 1002.1
16 21.05 СВ 2 н/о н/о +19.8 +10.7 56 +22 +22 комфорт 1010.6 1001.9
17 21.05 СЗ 2
{4}
н/о н/о +19.1 +10.4 57 +21 +21 комфорт 1010.6 1001.9
18 21.05 СЗ 2
{5}
н/о н/о +18.6 +11.1 62 +20 +20 1010.6 1001.9 +14.2 +22.1
19 21.05 З 2
{4}
н/о н/о +16.3 +10.9 70 +16 +16 1010.9 1002.2
20 21.05 ЮЗ 2
{3}
н/о н/о +13.9 +11.0 83 +13 +13 1011.2 1002.4
21 21.05 З 2
{3}
н/о н/о +11.9 +10.4 91 +11 +11 1011.3 1002.4
22 21.05 штиль 0
{2}
н/о н/о +11.4 +10.1 92 +11 +11 1011.1 1002.2
23 21.05 штиль 0
{2}
н/о н/о +10.6 +9.6 94 +10 +10 1010.8 1001.9
00 22.05 штиль 0
{4}
н/о н/о +9.9 +9.1 95 +9 +9 1010.3 1001.4
01 22.05 З 1
{1}
н/о н/о +9.3 +8.7 96 +9 +9 1010.1 1001.2
02 22.05 штиль 0
{1}
н/о н/о +9.3 +8.8 97 +8 +8 1009.6 1000.6
03 22.05 штиль 0
{1}
н/о н/о +9.8 +9.2 96 +9 +9 1009.2 1000.2
04 22.05 З 1
{1}
н/о н/о +10.7 +10.0 95 +10 +10 1008.9 1000.0
05 22.05 ЮЗ 1
{2}
н/о н/о +11.2 +10.5 95 +11 +11 1008.6 999.7
06 22.05 В 1
{2}
н/о н/о +11.8 +11.0 95 +12 +12 1007.8 998.9 +8.8 +18.6
07 22.05 ЮЗ 2
{3}
н/о н/о +12.7 +11.6 93 +12 +12 1007.8 998.9
08 22.05 штиль 0
{2}
н/о н/о +12.7 +11.6 93 +12 +12 1007.6 998.8
09 22.05 З 1
{4}
н/о н/о +13.3 +11.7 90 +13 +13 1007.5 998.7
10 22.05 ЮЗ 1
{3}
н/о н/о +13.6 +12.1 91 +14 +14 1007.3 998.5
11 22.05 СВ 2
{3}
н/о н/о +15.1 +12.8 86 +15 +15 1007.2 998.4
12 22.05 В 2
{4}
н/о н/о +16.1 +12.6 80 +16 +16 1007.4 998.6
13 22.05 СВ 1
{4}
н/о н/о +16.0 +12.5 80 +17 +17 1007.4 998.7
14 22.05 СВ 2
{3}
н/о н/о +15.4 +12.5 83 +15 +15 1007.7 999.0
15 22.05 В 2
{4}
н/о н/о +15.8 +12.5 81 +16 +16 1007.6 998.8
16 22.05 С 1
{4}
н/о н/о +15.4 +12.1 81 +16 +16 1007.5 998.7
17 22.05 С 2
{5}
н/о н/о +13.9 +11.5 85 +13 +13 1007.6 998.8
18 22.05 СВ 1
{5}
н/о н/о +13.4 +11.9 91 +14 +14 1007.5 998.7 +11.8 +16.5
19 22.05 В 2
{4}
н/о н/о +13.5 +11.8 89 +13 +13 1007.3 998.5
20 22.05 З 2
{4}
н/о н/о +12.7 +11.8 94 +12 +12 1007.1 998.3
21 22.05 ЮЗ 3
{4}
н/о н/о +11.7 +10.9 95 +10 +10 1006.8 998.0
22 22.05 З 2
{5}
н/о н/о +11.3 +10.6 95 +10 +10 1006.9 998.0
23 22.05 ЮЗ 2
{3}
н/о н/о +10.9 +10.3 96 +9 +9 1006.6 997.7
00 23.05 ЮЗ 3
{5}
н/о н/о +10.7 +9.7 94 +9 +9 1006.6 997.7
01 23.05 Ю 2
{6}
н/о н/о +10.3 +9.4 94 +9 +9 1006.4 997.5
02 23.05 штиль 0
{2}
н/о н/о +10.4 +9.6 95 +10 +10 1006.4 997.5
03 23.05 ЮЗ 1
{2}
н/о н/о +10.1 +9.4 95 +10 +10 1006.4 997.5
04 23.05 СВ 1
{2}
н/о н/о +10.0 +9.1 94 +9 +9 1006.1 997.2
05 23.05 В 1
{3}
н/о н/о +9.9 +8.7 92 +9 +9 1005.9 997.0
06 23.05 ЮЗ 2
{6}
н/о н/о +9.8 +8.6 92 +8 +8 1006.2 997.3 +9.8 +13.6
07 23.05 В 1
{3}
н/о н/о +10.0 +8.6 91 +9 +9 1006.1 997.2
08 23.05 ЮВ 1
{3}
н/о н/о +12.0 +7.9 76 +12 +12 1005.7 996.9
09 23.05 В 2
{4}
н/о н/о +12.4 +7.6 73 +12 +12 1005.4 996.6
10 23.05 Ю 1
{3}
н/о н/о +13.6 +8.3 70 +14 +14 1005.1 996.3
11 23.05 Ю 1
{3}
н/о н/о +15.8 +9.8 67 +17 +17 1004.8 996.0
12 23.05 Ю 2
{4}
н/о н/о +15.0 +9.0 67 +15 +15 1004.6 995.9
13 23.05 Ю 3
{5}
н/о н/о +15.6 +9.5 67 +15 +15 1004.3 995.6
14 23.05 ЮЗ 4
{6}
н/о н/о +15.6 +10.3 71 +15 +15 1004.1 995.4
15 23.05 ЮЗ 4
{6}
н/о н/о +14.8 +9.6 71 +14 +14 1003.7 994.9
16 23.05 ЮЗ 3
{5}
н/о н/о +15.4 +9.5 68 +15 +15 1003.5 994.7
17 23.05 ЮЗ 3
{5}
н/о н/о +14.6 +9.2 70 +14 +14 1003.5 994.7
18 23.05 Ю 2
{6}
н/о н/о +13.2 +8.4 73 +13 +13 1004.5 995.7 +9.7 +17.2
19 23.05 Ю 2
{6}
н/о н/о +13.9 +8.3 69 +13 +13 1004.5 995.7
20 23.05 СЗ 1
{2}
н/о н/о +11.3 +8.0 80 +11 +11 1004.7 995.8
21 23.05 СВ 1
{2}
н/о н/о +9.3 +8.0 92 +9 +9 1004.9 996.0
22 23.05 В 1
{2}
н/о н/о +8.9 +7.8 93 +8 +8 1005.0 996.1
23 23.05 СВ 1
{2}
н/о н/о +8.8 +7.8 93 +8 +8 1004.8 995.9
00 24.05 СВ 1
{6}
н/о н/о +8.9 +7.8 93 +8 +8 1004.7 995.8
01 24.05 штиль 0
{2}
н/о н/о +7.3 +6.5 95 +6 +6 1004.8 995.8
02 24.05 штиль 0
{2}
н/о н/о +7.6 +7.0 96 +7 +7 1004.9 995.9
03 24.05 СВ 1
{2}
н/о н/о +8.8 +8.2 96 +8 +8 1005.1 996.2
04 24.05 штиль 0
{1}
н/о н/о +9.5 +8.7 95 +9 +9 1005.2 996.3
05 24.05 В 2
{4}
н/о н/о +9.9 +8.7 92 +8 +8 1005.4 996.5
06 24.05 Ю 2
{4}
н/о н/о +10.3 +8.9 91 +9 +9 1005.8 996.9 +7.2 +14.5
07 24.05 ЮЗ 3
{3}
н/о н/о +10.1 +8.9 92 +8 +8 1006.0 997.1
08 24.05 ЮЗ 3
{4}
н/о н/о +10.4 +8.9 90 +8 +8 1006.2 997.3
09 24.05 ЮЗ 3
{4}
н/о н/о +11.5 +8.7 83 +10 +10 1006.6 997.7
10 24.05 Ю 3
{5}
н/о н/о +12.4 +8.5 77 +11 +11 1006.7 997.9
11 24.05 С 3
{7}
н/о н/о +13.6 +8.6 72 +13 +13 1006.8 998.0
12 24.05 В 3
{7}
н/о н/о +12.9 +8.6 75 +12 +12 1007.3 998.5
13 24.05 ЮЗ 4
{7}
н/о н/о +13.0 +8.4 74 +11 +11 1007.7 998.8
14 24.05 Ю 3
{9}
н/о н/о +12.8 +8.2 74 +11 +11 1008.1 999.3
15 24.05 Ю 3
{7}
н/о н/о +11.8 +8.3 79 +10 +10 1008.4 999.5
16 24.05 Ю 4
{8}
н/о н/о +11.3 +8.0 80 +9 +9 1008.6 999.7
17 24.05 ЮЗ 4
{5}
н/о н/о +11.0 +8.3 83 +9 +9 1008.7 999.8
18 24.05 Ю 2
{9}
н/о н/о +10.5 +7.7 83 +9 +9 1009.0 1000.0 +10.0 +14.4
19 24.05 ЮЗ 3
{8}
н/о н/о +10.1 +7.8 86 +8 +8 1009.5 1000.5
20 24.05 ЮЗ 4
{6}
н/о н/о +9.5 +7.6 88 +7 +7 1009.9 1000.9
21 24.05 ЮЗ 3
{5}
н/о н/о +9.2 +7.4 88 +7 +7 1010.1 1001.1
22 24.05 ЮЗ 1
{4}
н/о н/о +9.5 +6.9 84 +9 +9 1010.0 1001.0
23 24.05 ЮЗ 1
{3}
н/о н/о +9.5 +6.8 83 +9 +9 1010.2 1001.2
00 25.05 Ю 3
{8}
н/о н/о +9.3 +6.4 82 +7 +7 1010.4 1001.4
01 25.05 Ю 2
{5}
н/о н/о +9.2 +6.4 83 +8 +8 1010.4 1001.4
02 25.05 Ю 2
{3}
н/о н/о +8.9 +5.9 81 +7 +7 1010.2 1001.2
03 25.05 ЮЗ 2
{3}
н/о н/о +8.7 +5.0 78 +7 +7 1010.2 1001.3
04 25.05 Ю 2
{4}
н/о н/о +8.7 +4.6 75 +7 +7 1010.3 1001.3
05 25.05 Ю 2
{4}
н/о н/о +8.6 +4.4 75 +7 +7 1010.3 1001.3
06 25.05 ЮЗ 2
{5}
н/о н/о +9.0 +4.9 75 +7 +7 1010.2 1001.3 +8.5
07 25.05 Ю 2
{4}
н/о н/о +9.4 +4.2 70 +8 +8 1010.1 1001.1
08 25.05 ЮЗ 3
{5}
н/о н/о +9.6 +3.6 66 +8 +8 1009.9 1000.9
09 25.05 Ю 2
{4}
н/о н/о +10.3 +3.5 63 +9 +9 1009.6 1000.6
10 25.05 СВ 2
{5}
н/о н/о +10.1 +3.4 63 +9 +9 1009.4 1000.5
11 25.05 С 2
{4}
н/о н/о +10.2 +3.8 64 +9 +9 1009.2 1000.2
12 25.05 ЮЗ 3
{5}
н/о н/о +10.5 +3.9 64 +9 +9 1008.9 1000.0
13 25.05 ЮЗ 3
{6}
н/о н/о +9.9 +3.8 66 +8 +8 1008.8 999.8
14 25.05 Ю 2
{6}
н/о н/о +9.8 +3.8 66 +8 +8 1008.5 999.6
15 25.05 Ю 5
{8}
н/о н/о +8.8 +3.9 71 +6 +6 1008.3 999.3
16 25.05 ЮЗ 4
{9}
н/о н/о +8.5 +3.6 71 +6 +6 1007.8 998.8
17 25.05 ЮЗ 3
{7}
н/о н/о +7.7 +3.6 75 +5 +5 1007.5 998.5
18 25.05 ЮЗ 2
{9}
н/о н/о +7.4 +3.5 76 +5 +5 1007.3 998.3 +7.4 +11.1
19 25.05 Ю 1
{3}
н/о н/о +6.9 +3.7 80 +6 +6 1006.9 997.8
20 25.05 ЮЗ 3
{6}
н/о н/о +6.0 +4.3 89 +3 +3 1006.8 997.7
21 25.05 СВ 1
{3}
н/о н/о +5.9 +4.5 91 +5 +5 1006.4 997.3
22 25.05 ЮВ 1
{2}
н/о н/о +5.6 +4.0 89 +4 +4 1006.1 997.0
23 25.05 З 1
{1}
н/о н/о +5.6 +4.4 92 +4 +4 1005.8 996.8
00 26.05 штиль 0
{6}
н/о н/о +5.3 +4.1 92 +4 +4 1005.5 996.4
01 26.05 штиль 0
{1}
н/о н/о +5.2 +4.2 93 +4 +4 1005.2 996.1
02 26.05 штиль 0
{1}
н/о н/о +5.4 +4.5 94 +4 +4 1004.9 995.9
03 26.05 штиль 0
{2}
н/о н/о +4.9 +4.1 95 +4 +4 1005.0 995.9
04 26.05 Ю 1
{3}
н/о н/о +5.6 +4.0 89 +4 +4 1004.8 995.8
05 26.05 В 2
{4}
н/о н/о +6.0 +4.0 87 +4 +4 1004.6 995.6
06 26.05 Ю 1
{4}
н/о н/о +6.6 +3.3 79 +6 +6 1004.5 995.4 +4.8 +7.4
07 26.05 ЮВ 2
{5}
н/о н/о +6.5 +2.6 76 +4 +4 1004.6 995.6
08 26.05 В 2
{5}
н/о н/о +8.9 +2.2 63 +7 +7 1004.4 995.5
09 26.05 В 2
{4}
н/о н/о +9.9 +1.8 57 +9 +9 1004.2 995.3
10 26.05 ЮВ 3
{7}
н/о н/о +9.1 +3.3 67 +7 +7 1004.2 995.3
11 26.05 С 2
{6}
н/о н/о +10.8 +2.2 55 +10 +10 1004.1 995.2
12 26.05 ЮЗ 4
{9}
н/о н/о +9.5 +2.7 63 +7 +7 1004.3 995.4
13 26.05 ЮВ 3
{7}
н/о н/о +11.1 +3.5 59 +10 +10 1003.8 994.9
14 26.05 Ю 3
{7}
н/о н/о +11.1 +2.2 54 +10 +10 1003.4 994.5
15 26.05 Ю 3
{7}
н/о н/о +9.6 +2.1 59 +8 +8 1003.5 994.6
16 26.05 ЮВ 3
{7}
н/о н/о +10.1 +2.5 59 +8 +8 1003.1 994.2
17 26.05 Ю 3
{7}
н/о н/о +9.4 +2.4 62 +7 +7 1003.0 994.1
18 26.05 Ю 3
{7}
н/о н/о +8.6 +2.2 64 +6 +6 1002.8 993.8 +6.4 +11.6
19 26.05 ЮЗ 4
{6}
н/о н/о +8.1 +2.5 68 +5 +5 1002.5 993.6
20 26.05 Ю 3
{6}
н/о н/о +7.5 +2.7 72 +5 +5 1002.3 993.4
21 26.05 ЮЗ 3
{6}
н/о н/о +7.2 +2.4 72 +4 +4 1002.1 993.1
22 26.05 Ю 3
{5}
н/о н/о +6.9 +2.3 72 +4 +4 1001.7 992.7
23 26.05 Ю 3
{5}
н/о н/о +6.6 +2.3 74 +4 +4 1001.4 992.4
00 27.05 ЮЗ 2
{7}
н/о н/о +6.2 +1.8 73 +4 +4 1001.1 992.1
01 27.05 З 1
{5}
н/о н/о +5.4 +2.0 79 +4 +4 1000.9 991.9
02 27.05 штиль 0
{1}
н/о н/о +4.9 +2.5 84 +4 +4 1000.6 991.6
03 27.05 штиль 0
{1}
н/о н/о +5.1 +3.3 88 +4 +4 1000.4 991.4
04 27.05 Ю 1
{2}
н/о н/о +5.9 +2.4 78 +5 +5 1000.2 991.3
05 27.05 ЮЗ 3
{5}
н/о н/о +6.2 +2.1 75 +3 +3 1000.1 991.1
06 27.05 ЮВ 2
{5}
н/о н/о +6.2 +1.8 73 +4 +4 1000.0 991.1 +4.8 +8.6
07 27.05 СВ 2
{5}
н/о н/о +7.3 +2.1 70 +5 +5 1000.0 991.0
08 27.05 В 3
{7}
н/о н/о +7.4 +1.9 68 +5 +5 1000.0 991.0
09 27.05 Ю 2
{6}
н/о н/о +6.9 +1.9 70 +5 +5 1000.2 991.3
10 27.05 ЮЗ 5
{8}
н/о н/о +6.6 +1.6 70 +3 +3 1000.3 991.4
11 27.05 Ю 3
{9}
н/о н/о +8.3 +0.3 57 +6 +6 1000.5 991.6
12 27.05 Ю 3
{9}
н/о н/о +8.3 -0.3 55 +6 +6 1000.6 991.7
13 27.05 Ю 3
{8}
н/о н/о +8.4 +0.6 58 +6 +6 1000.8 991.9

 

Местоположение метеостанции Аэропорт Орста-Волда (Норвегия): широта 62.18 долгота 6.08 высота над уровнем моря 74 м.

В архиве по умолчанию представлена погода в Аэропорту Орста-Волда за последнюю неделю. Архивные данные за месяц целиком и за предыдущие месяцы, начиная с января 2011 года, Вы можете получить, выбрав интересующий диапазон дат из раскрывающегося списка и нажав кнопку "Ввод!".


*Определитесь, кто Вы:
робот инопланетянин человек

Внимание! Время в таблицах - всемирное. Для получения местного времени необходимо прибавить поправку, которая равна 1 ч.

Смотрите также архив погоды в соседних городах и на ближайших метеорологических станциях:

Погода в Фиске (Норвегия) (27 км)
Погода в Олесунне (Норвегия) (33 км)
Погода в Стрын-Крокене (Норвегия) (38 км)
Погода в Сандан аэропорту (Норвегия) (39 км)
Погода в Олесунн аэропорту (Норвегия) (43 км)
Погода на Маяке Svinoy (Норвегия) (45 км)
Погода в Берген аэропорту (Норвегия) (46 км)
Погода в Лебергсфелле (Норвегия) (56 км)
Погода на Маяке Krakenes (Норвегия) (59 км)
Погода в Рекдале (Норвегия) (63 км)

Пояснения к столбцам:

Ветер - указаны скорость ветра в м/с - средняя за 10 мин, порывы в срок и между сроками (в фигурных скобках) и направление, откуда дует ветер: С - северный, СВ - северо-восточный, В - восточный, ЮВ - юго-восточный, Ю - южный, ЮЗ - юго-западный, З - западный, СЗ - северо-западный.
Видимость - горизонтальная дальность видимости в метрах или километрах. При видимости от 1 до 10 км при отсутствии осадков обычно наблюдается дымка, при ухудшении видимости до 1 км и менее - туман. В сухую погоду видимость может ухудшаться дымом, пылью или мглою.
Явления - указаны атмосферные явления, наблюдавшиеся в срок или в последний час перед сроком; фигурными скобками обозначены явления, наблюдавшиеся между сроками (за 1-3 часа до срока); квадратными скобками обозначены град или гололедные отложения с указанием их диаметра в мм.
Облачность - указаны через наклонную черту общая и нижняя облачность в баллах и высота нижней границы облаков в метрах; квадратными скобками обозначены формы облаков: Ci - перистые, Cs - перисто-слоистые, Cc - перисто-кучевые, Ac - высококучевые, As - высокослоистые, Sc - слоисто-кучевые, Ns - слоисто-дождевые, Cu - кучевые, Cb - кучево-дождевые. Подробнее классификацию облаков см. в Атласе облаков (PDF).
T - Температура воздуха - температура, измеренная на высоте 2 м над землей.
Td - Температура точки росы - температура, при понижении до которой содержащийся в воздухе водяной пар достигнет насыщения.
f - Относительная влажность воздуха - влажноcть воздуха, измеренная на высоте 2 м над землей.
Te - Эффективная температура - температура, которую ощущает одетый по сезону человек в тени. Характеристика душности погоды. При расчете учитывается влияние влажности воздуха и скорости ветра на теплоощущения человека.
Tes - Эффективная температура на солнце - температура, которую ощущает человек, с поправкой на солнечный нагрев. Характеристика знойности погоды. Зависит от высоты солнца над горизонтом, облачности и скорости ветра. Ночью, в пасмурную погоду, а также при ветре 12 м/с и более поправка равна нулю.
P - Атмосферное давление - приведенное к уровню моря атмосферное давление.
Po - Атмосферное давление - измеренное на уровне метеостанции атмосферное давление.
Tmin - Минимальная температура - минимум температуры воздуха на высоте 2 м над землей.
Tmax - Максимальная температура - максимум температуры воздуха на высоте 2 м над землей.
R - Количество осадков - Количество выпавших осадков за период времени, мм. При наведении курсора мыши на число - период времени, за который выпало указанное количество осадков.
R24 - Количество осадков - Количество выпавших осадков за 24 часа, мм.
S - Снежный покров - Высота снежного покрова, см. При наведении курсора мыши на число - состояние снежного покрова и степень покрытия местности в баллах.